Regional Weather Roundup
Issued by NWS

Home | Current Version | Previous Version | Text Only | Print | Product List | Glossary On
Versions: 1 2 3 4 5 6 7 8 9 10 11 12 13 14 15 16 17 18 19 20 21 22 23 24 25 26 27 28 29 30 31 32 33 34 35 36 37 38 39 40 41 42 43 44 45 46 47 48 49 50
675
ASHW40 PHFO 081432
RWRHI

WEATHER ROUNDUP FOR HAWAII
NATIONAL WEATHER SERVICE HONOLULU HI
400 AM HST MON FEB 08 2016

THIS IS AN AUTOMATED REPORT THAT HAS NOT BEEN QUALITY CONTROLLED.

NOTE..."FAIR" INDICATES FEW OR NO CLOUDS BELOW 12,000 FEET WITH NO
SIGNIFICANT WEATHER AND/OR OBSTRUCTIONS TO VISIBILITY.

* - THESE SITES REPORT LIMITED FIELDS

HIZ001>004-081500-
KAUAI-NIIHAU-

CITY           SKY/WX    TMP DP  RH WIND       PRES   REMARKS
LIHUE APT      CLOUDY    58  49  72 W9        30.06R
PORT ALLEN*      N/A     55 N/A N/A NE8         N/A
POIPU*           N/A     55 N/A N/A N5          N/A
PRINCEVILLE*     N/A     59 N/A N/A SW2         N/A
KOKOLE POINT*  NOT AVBL
MOLOAA DAIRY*    N/A     57  48  72 W3          N/A
WAIMEA HTS*    NOT AVBL
PUU OPAE*      NOT AVBL
PUU LUA*       NOT AVBL
MAKAHA RIDGE*    N/A     55  46  71 N2G8        N/A
$$

HIZ005>011-081500-
OAHU-

CITY           SKY/WX    TMP DP  RH WIND       PRES   REMARKS
HONOLULU       PTCLDY    61  53  75 NW7       30.02S
KALAELOA       CLEAR     53  46  77 N3        30.04R
KANEOHE MCB    CLEAR     67  47  48 NE9       29.99S
WHEELER FIELD  FAIR      54  47  78 NW6       30.01R
BELLOWS*         N/A    N/A N/A N/A N7G14       N/A
KAHUKU*          N/A    N/A N/A N/A VRB1        N/A
WHEELER*       NOT AVBL
WAIANAE HARBOR NOT AVBL
DILLINGHAM*      N/A     55  45  67 MISG        N/A
KAHUKU TRN*      N/A     72  55  56 S3          N/A
KAWAILOA*        N/A     59  45  58 NE5         N/A
KII*             N/A     59  48  67 S3G9        N/A
MAKUA RANGE*     N/A     57  46  67 E7          N/A
OAHU FOREST NW NOT AVBL
SCHOFIELD BRK*   N/A     70  66  88 MISG        N/A
SCHOFIELD S*   NOT AVBL
WAIANAE VLY*   NOT AVBL
KUAOKALA*      NOT AVBL
HONOULIUULI*   NOT AVBL
MOKUOLOE IS*   NOT AVBL
PALEHUA*       NOT AVBL
WAIAWA PHB*    NOT AVBL
$$

HIZ012>013-081500-
MOLOKAI-

CITY           SKY/WX    TMP DP  RH WIND       PRES   REMARKS
MOLOKAI AIRPT  MOCLDY    59  49  69 CALM      30.00F
KALAUPAPA      NOT AVBL
MAKAPULAPAI*     N/A     66  52  59 NE9G16      N/A
MOLOKAI 1*     NOT AVBL
PUU ALII*        N/A     46  46 100 N2G8        N/A
$$

HIZ016-081500-
KAHOOLAWE-

CITY           SKY/WX    TMP DP  RH WIND       PRES   REMARKS
KAHOOLAWE*       N/A     59 N/A N/A NE1         N/A
HAKIOAWA*        N/A     61  51  69 MISG      30.38F
HONOKANAIA*      N/A     68  52  56 N12G21    29.94F
KANELOA*         N/A     64  52  63 N14G26    30.04F
KEALIALALO*      N/A     61  50  67 E3G18     29.96F
LUA MAKIKA*    NOT AVBL
$$

HIZ014>015-081500-
LANAI-

CITY           SKY/WX    TMP DP  RH WIND       PRES   REMARKS
LANAI CITY     FAIR      60  48  64 NE15      30.00F
LANAI 1*       NOT AVBL
$$

HIZ017>028-081500-
MAUI-

CITY           SKY/WX    TMP DP  RH WIND       PRES   REMARKS
KAHULUI        CLEAR     57  53  86 CALM      29.99F
KAPALUA-W MAUI NOT AVBL
HANA AIRPORT   CLEAR     55  32  41 S3        30.01F
HANA*            N/A     63 N/A N/A S3          N/A
HALEAKALA SUMM   N/A     37  -2  18 N30G69      N/A  WCI  25
MAALAEA BAY*     N/A     59 N/A N/A NE7         N/A
HALEAKALA*     NOT AVBL
KAUPO GAP*     NOT AVBL
KULA 1*          N/A     48  -2  12 NE3G12      N/A
$$

HIZ023>026-081500-
BIG ISLAND OF HAWAII COAST AND LOWER SLOPES-

CITY           SKY/WX    TMP DP  RH WIND       PRES   REMARKS
KAILUA KONA    CLEAR     64  52  64 N9        29.95
HILO           CLOUDY    66  55  67 SW6       29.99F
HONOKAA*         N/A     59 N/A N/A VRB1        N/A
KAWAIHAE MWT*    N/A     64 N/A N/A NE8         N/A
KAWAIHAE*        N/A     64 N/A N/A NE6       29.96S
SOUTH POINT*     N/A     63 N/A N/A W6          N/A
UPOLU AIRPORT*   N/A    N/A N/A N/A NE17        N/A
KAMUELA*       SUNNY     50  48  93 NE14      30.04F
HAKALAU*         N/A    N/A N/A N/A W3G12       N/A
KALOKO-HONOKO*   N/A     61  55  82 NE2       29.93F
PALI 2*          N/A     54  48  82 N12G20      N/A
KEALAKOMO*       N/A     70  52  52 N24G36      N/A
KAUPULEHU*     NOT AVBL
KAPAPALA*        N/A     56  52  87 N3G10       N/A
LOWER KAHUKU*    N/A     54 -45   1 N2          N/A
PUHE CS*         N/A     64  50  59 NE6         N/A
PUHO CS*         N/A     67  51  56 E3          N/A
PTA KEAMUKU*     N/A     48  41  76 CALM        N/A
WAIKOLOA*      NOT AVBL
$$

HIZ027>028-081500-
BIG ISLAND OF HAWAII INTERIOR AND SUMMMITS-

CITY           SKY/WX    TMP DP  RH WIND       PRES   REMARKS
BRADSHAW FIELD CLOUDY    37  16  43 SE6       30.19F
MK VISITOR CEN   N/A     39  -9  12 W2          N/A
MAUNA KEA*       N/A     27 -18  13 N31G44      N/A  WCI  10
MAUNA LOA*       N/A     36 -26   6 MISG        N/A
MAUNA LOA 1*   NOT AVBL
PTA KIPUKA*      N/A    N/A N/A N/A E5          N/A
PTA RANGE 17*    N/A     64  54  68 E7          N/A
PTA WEST*        N/A     68  61  77 SE12        N/A
NENE CABIN*      N/A    N/A N/A N/A N5          N/A
AHUMOA*        NOT AVBL
PTA PORTABLE*  NOT AVBL
PUU MALI*        N/A     48  10  21 SW6G17      N/A
$$

HIC003-081500-
NORTHWEST ISLANDS-

CITY           SKY/WX    TMP DP  RH WIND       PRES   REMARKS
MIDWAY ISLAND  CLEAR     66  59  77 W16       30.07F
MIDWAY NOS*      N/A     66 N/A N/A MISG      30.05F
FRENCH FRIGATE NOT AVBL
$$

PHZ110>124-180-081500-
BUOY REPORTS

STATION/POSITION TIME  TEMP    WIND        PRES    WAVE   SWELL
                       AIR SEA DIR/SP/G            HT/PER HT/DIR
                 (UTC) (F)     (DEG/KT/KT) (MB)    (FT/S) (FT/D)
BUOY 51001       1400   68 76  340/  8/ 16 1018.4R
BUOY 51101       1350   68 75  360/ 10/ 14 1018.0F  12/11  13/340
BUOY 51100       NOT AVBL
BUOY 51002       1350   74 77   20/ 16/ 19 1013.7F  10/ 9   8/350
BUOY 51003       1350   72 78   40/ 17/ 19 1015.6F  10/12   8/360
BUOY 51004       1350   74 77   20/ 19/ 21 1013.2F  10/ 9   8/350
BARBERS PT BUOY  NOT AVBL
WAIMEA BAY BUOY  1404      77                N/A    11/12   8/330
KAILUA BAY BUOY  1311      77                N/A    10/13   7/ 10
LANAI BUOY       NOT AVBL
BARBERS PT 2     1403      77                N/A     8/11   5/320
PAUWELA MAUI     1407      76                N/A    10/11   7/330
HILO             NOT AVBL
KANEOHE BAY BUOY 1406      76                N/A     8/13   7/350
HANALEI KAUAI    1401      77                N/A    12/12   8/330
KAHULUI HARBOR   NOT AVBL
HONOLULU HARBOR  1400   67 76  330/  3/  5 1017.1R
KILO NALU        NOT AVBL
HILO HARBOR      1400   69 75  280/  7/  9 1014.9F
MOKUOLOE         1300   70 76   30/  8/ 10 1016.0F
NAWILIWILI       1400   59 78  290/  5/  7 1017.5R
WHOTS BUOY       NOT AVBL
BUOY 51028       NOT AVBL
$$

......................KEY........................................
  SKY/WX - SKY CONDITIONS/PRESENT WEATHER
  TMP    - TEMPERATURE IN FAHRENHEIT
  DWPT   - DEWPOINT IN FAHRENHEIT
  RH     - RELATIVE HUMIDITY IN PERCENT
  WIND   - DIRECTION AND SPEED /MPH FOR ISLANDS...KTS FOR BUOYS/
  PRES   - MEAN SEA LEVEL PRESSURE IN INCHES OF HG
  VSB    - VISIBILITY IN MILES
  HX     - HEAT INDEX
  WCI    - WIND CHILL INDEX
  VRB    - VARIABLE WIND DIRECTION
  N/A    - NOT AVAILABLE




USA.gov is the U.S. government's official web portal to all federal, state and local government web resources and services.